Year,Month,Day,Hour,Minute,Value (Times are PST for temperature in C)
2015,06,28,00,00,24.70
2015,06,28,00,01,24.70
2015,06,28,00,02,24.70
2015,06,28,00,03,24.60
2015,06,28,00,04,24.60
2015,06,28,00,05,24.60
2015,06,28,00,06,24.60
2015,06,28,00,07,24.50
2015,06,28,00,08,24.50
2015,06,28,00,09,24.50
2015,06,28,00,10,24.40
2015,06,28,00,11,24.40
2015,06,28,00,12,24.40
2015,06,28,00,13,24.40
2015,06,28,00,14,24.30
2015,06,28,00,15,24.30
2015,06,28,00,16,24.30
2015,06,28,00,17,24.30
2015,06,28,00,18,24.20
2015,06,28,00,19,24.20
2015,06,28,00,20,24.20
2015,06,28,00,21,24.20
2015,06,28,00,22,24.20
2015,06,28,00,23,24.20
2015,06,28,00,24,24.20
2015,06,28,00,25,24.10
2015,06,28,00,26,24.10
2015,06,28,00,27,24.10
2015,06,28,00,28,24.10
2015,06,28,00,29,24.10
2015,06,28,00,30,24.00
2015,06,28,00,31,24.00
2015,06,28,00,32,24.00
2015,06,28,00,33,23.90
2015,06,28,00,34,23.90
2015,06,28,00,35,23.90
2015,06,28,00,36,23.80
2015,06,28,00,37,23.80
2015,06,28,00,38,23.80
2015,06,28,00,39,23.80
2015,06,28,00,40,23.70
2015,06,28,00,41,23.70
2015,06,28,00,42,23.70
2015,06,28,00,43,23.70
2015,06,28,00,44,23.60
2015,06,28,00,45,23.60
2015,06,28,00,46,23.50
2015,06,28,00,47,23.50
2015,06,28,00,48,23.40
2015,06,28,00,49,23.40
2015,06,28,00,50,23.40
2015,06,28,00,51,23.30
2015,06,28,00,52,23.30
2015,06,28,00,53,23.30
2015,06,28,00,54,23.30
2015,06,28,00,55,23.20
2015,06,28,00,56,23.20
2015,06,28,00,57,23.20
2015,06,28,00,58,23.10
2015,06,28,00,59,23.10
2015,06,28,01,00,23.10
2015,06,28,01,01,23.10
2015,06,28,01,02,23.10
2015,06,28,01,03,23.00
2015,06,28,01,04,23.00
2015,06,28,01,05,22.90
2015,06,28,01,06,22.90
2015,06,28,01,07,22.90
2015,06,28,01,08,22.90
2015,06,28,01,09,22.90
2015,06,28,01,10,22.90
2015,06,28,01,11,22.90
2015,06,28,01,12,22.90
2015,06,28,01,13,22.80
2015,06,28,01,14,22.80
2015,06,28,01,15,22.80
2015,06,28,01,16,22.80
2015,06,28,01,17,22.80
2015,06,28,01,18,22.80
2015,06,28,01,19,22.80
2015,06,28,01,20,22.80
2015,06,28,01,21,22.80
2015,06,28,01,22,22.70
2015,06,28,01,23,22.70
2015,06,28,01,24,22.70
2015,06,28,01,25,22.70
2015,06,28,01,26,22.70
2015,06,28,01,27,22.70
2015,06,28,01,28,22.60
2015,06,28,01,29,22.60
2015,06,28,01,30,22.50
2015,06,28,01,31,22.50
2015,06,28,01,32,22.40
2015,06,28,01,33,22.40
2015,06,28,01,34,22.40
2015,06,28,01,35,22.40
2015,06,28,01,36,22.40
2015,06,28,01,37,22.40
2015,06,28,01,38,22.30
2015,06,28,01,39,22.30
2015,06,28,01,40,22.30
2015,06,28,01,41,22.20
2015,06,28,01,42,22.20
2015,06,28,01,43,22.20
2015,06,28,01,44,22.20
2015,06,28,01,45,22.10
2015,06,28,01,46,22.10
2015,06,28,01,47,22.10
2015,06,28,01,48,22.10
2015,06,28,01,49,22.10
2015,06,28,01,50,22.00
2015,06,28,01,51,22.00
2015,06,28,01,52,22.00
2015,06,28,01,53,21.90
2015,06,28,01,54,21.90
2015,06,28,01,55,21.90
2015,06,28,01,56,21.90
2015,06,28,01,57,21.80
2015,06,28,01,58,21.80
2015,06,28,01,59,21.80
2015,06,28,02,00,21.80
2015,06,28,02,01,21.70
2015,06,28,02,02,21.70
2015,06,28,02,03,21.70
2015,06,28,02,04,21.70
2015,06,28,02,05,21.70
2015,06,28,02,06,21.60
2015,06,28,02,07,21.60
2015,06,28,02,08,21.60
2015,06,28,02,09,21.60
2015,06,28,02,10,21.60
2015,06,28,02,11,21.50
2015,06,28,02,12,21.50
2015,06,28,02,13,21.50
2015,06,28,02,14,21.40
2015,06,28,02,15,21.40
2015,06,28,02,16,21.40
2015,06,28,02,17,21.40
2015,06,28,02,18,21.40
2015,06,28,02,19,21.40
2015,06,28,02,20,21.30
2015,06,28,02,21,21.30
2015,06,28,02,22,21.30
2015,06,28,02,23,21.30
2015,06,28,02,24,21.30
2015,06,28,02,25,21.30
2015,06,28,02,26,21.30
2015,06,28,02,27,21.20
2015,06,28,02,28,21.20
2015,06,28,02,29,21.20
2015,06,28,02,30,21.20
2015,06,28,02,31,21.20
2015,06,28,02,32,21.10
2015,06,28,02,33,21.10
2015,06,28,02,34,21.10
2015,06,28,02,35,21.10
2015,06,28,02,36,21.10
2015,06,28,02,37,21.10
2015,06,28,02,38,21.10
2015,06,28,02,39,21.10
2015,06,28,02,40,21.00
2015,06,28,02,41,21.00
2015,06,28,02,42,20.90
2015,06,28,02,43,20.90
2015,06,28,02,44,20.90
2015,06,28,02,45,20.90
2015,06,28,02,46,20.90
2015,06,28,02,47,20.90
2015,06,28,02,48,20.90
2015,06,28,02,49,20.90
2015,06,28,02,50,20.80
2015,06,28,02,51,20.80
2015,06,28,02,52,20.80
2015,06,28,02,53,20.80
2015,06,28,02,54,20.80
2015,06,28,02,55,20.70
2015,06,28,02,56,20.70
2015,06,28,02,57,20.70
2015,06,28,02,58,20.60
2015,06,28,02,59,20.60
2015,06,28,03,00,20.60
2015,06,28,03,01,20.60
2015,06,28,03,02,20.60
2015,06,28,03,06,20.40
2015,06,28,03,07,20.40
2015,06,28,03,08,20.40
2015,06,28,03,09,20.40
2015,06,28,03,10,20.40
2015,06,28,03,11,20.30
2015,06,28,03,12,20.30
2015,06,28,03,13,20.30
2015,06,28,03,14,20.30
2015,06,28,03,15,20.30
2015,06,28,03,16,20.30
2015,06,28,03,17,20.20
2015,06,28,03,18,20.20
2015,06,28,03,19,20.20
2015,06,28,03,20,20.20
2015,06,28,03,21,20.20
2015,06,28,03,22,20.10
2015,06,28,03,23,20.10
2015,06,28,03,24,20.10
2015,06,28,03,25,20.10
2015,06,28,03,26,20.10
2015,06,28,03,27,20.00
2015,06,28,03,28,20.00
2015,06,28,03,29,20.00
2015,06,28,03,30,20.00
2015,06,28,03,31,19.90
2015,06,28,03,32,19.90
2015,06,28,03,33,19.90
2015,06,28,03,34,19.80
2015,06,28,03,35,19.80
2015,06,28,03,36,19.80
2015,06,28,03,37,19.70
2015,06,28,03,38,19.70
2015,06,28,03,39,19.70
2015,06,28,03,40,19.70
2015,06,28,03,41,19.60
2015,06,28,03,42,19.60
2015,06,28,03,43,19.60
2015,06,28,03,44,19.60
2015,06,28,03,45,19.50
2015,06,28,03,46,19.50
2015,06,28,03,47,19.50
2015,06,28,03,48,19.50
2015,06,28,03,49,19.50
2015,06,28,03,50,19.50
2015,06,28,03,51,19.50
2015,06,28,03,52,19.50
2015,06,28,03,53,19.50
2015,06,28,03,54,19.50
2015,06,28,03,55,19.40
2015,06,28,03,56,19.40
2015,06,28,03,57,19.40
2015,06,28,03,58,19.40
2015,06,28,03,59,19.40
2015,06,28,04,00,19.40
2015,06,28,04,01,19.30
2015,06,28,04,02,19.30
2015,06,28,04,03,19.30
2015,06,28,04,04,19.30
2015,06,28,04,05,19.30
2015,06,28,04,06,19.30
2015,06,28,04,07,19.30
2015,06,28,04,08,19.30
2015,06,28,04,09,19.30
2015,06,28,04,10,19.30
2015,06,28,04,11,19.30
2015,06,28,04,12,19.20
2015,06,28,04,13,19.20
2015,06,28,04,14,19.20
2015,06,28,04,15,19.20
2015,06,28,04,16,19.20
2015,06,28,04,17,19.20
2015,06,28,04,18,19.20
2015,06,28,04,19,19.20
2015,06,28,04,20,19.20
2015,06,28,04,21,19.10
2015,06,28,04,22,19.10
2015,06,28,04,23,19.10
2015,06,28,04,24,19.10
2015,06,28,04,25,19.10
2015,06,28,04,26,19.10
2015,06,28,04,27,19.10
2015,06,28,04,28,19.10
2015,06,28,04,29,19.10
2015,06,28,04,30,19.10
2015,06,28,04,31,19.10
2015,06,28,04,32,19.10
2015,06,28,04,33,19.10
2015,06,28,04,34,19.10
2015,06,28,04,35,19.10
2015,06,28,04,36,19.10
2015,06,28,04,37,19.00
2015,06,28,04,38,19.00
2015,06,28,04,39,19.00
2015,06,28,04,40,19.00
2015,06,28,04,41,18.90
2015,06,28,04,42,18.90
2015,06,28,04,43,18.90
2015,06,28,04,44,18.90
2015,06,28,04,45,18.80
2015,06,28,04,46,18.80
2015,06,28,04,47,18.80
2015,06,28,04,48,18.80
2015,06,28,04,49,18.80
2015,06,28,04,50,18.80
2015,06,28,04,51,18.80
2015,06,28,04,52,18.80
2015,06,28,04,53,18.90
2015,06,28,04,54,18.90
2015,06,28,04,55,18.90
2015,06,28,04,56,18.90
2015,06,28,04,57,18.90
2015,06,28,04,58,18.90
2015,06,28,04,59,18.90
2015,06,28,05,00,18.90
2015,06,28,05,01,18.90
2015,06,28,05,02,19.00
2015,06,28,05,03,19.00
2015,06,28,05,04,19.00
2015,06,28,05,05,19.00
2015,06,28,05,06,19.00
2015,06,28,05,07,19.00
2015,06,28,05,08,19.00
2015,06,28,05,09,18.90
2015,06,28,05,10,18.90
2015,06,28,05,11,18.90
2015,06,28,05,12,18.90
2015,06,28,05,13,18.90
2015,06,28,05,14,18.90
2015,06,28,05,15,18.90
2015,06,28,05,16,18.90
2015,06,28,05,17,18.90
2015,06,28,05,18,18.90
2015,06,28,05,19,18.90
2015,06,28,05,20,18.90
2015,06,28,05,21,18.90
2015,06,28,05,22,18.90
2015,06,28,05,23,18.90
2015,06,28,05,24,18.90
2015,06,28,05,25,18.90
2015,06,28,05,26,18.90
2015,06,28,05,27,18.90
2015,06,28,05,28,18.90
2015,06,28,05,29,18.90
2015,06,28,05,30,18.90
2015,06,28,05,31,19.00
2015,06,28,05,32,19.00
2015,06,28,05,33,19.10
2015,06,28,05,34,19.10
2015,06,28,05,35,19.10
2015,06,28,05,36,19.10
2015,06,28,05,37,19.10
2015,06,28,05,38,19.10
2015,06,28,05,39,19.10
2015,06,28,05,40,19.10
2015,06,28,05,41,19.10
2015,06,28,05,42,19.10
2015,06,28,05,43,19.10
2015,06,28,05,44,19.10
2015,06,28,05,45,19.10
2015,06,28,05,46,19.10
2015,06,28,05,47,19.10
2015,06,28,05,48,19.10
2015,06,28,05,49,19.10
2015,06,28,05,50,19.10
2015,06,28,05,51,19.00
2015,06,28,05,52,19.00
2015,06,28,05,53,19.00
2015,06,28,05,54,19.00
2015,06,28,05,55,19.00
2015,06,28,05,56,19.00
2015,06,28,05,57,19.00
2015,06,28,05,58,19.00
2015,06,28,05,59,19.00
2015,06,28,06,00,19.00
2015,06,28,06,01,19.00
2015,06,28,06,02,19.00
2015,06,28,06,03,19.00
2015,06,28,06,04,19.00
2015,06,28,06,05,19.10
2015,06,28,06,06,19.10
2015,06,28,06,07,19.10
2015,06,28,06,08,19.10
2015,06,28,06,09,19.10
2015,06,28,06,10,19.20
2015,06,28,06,11,19.20
2015,06,28,06,12,19.20
2015,06,28,06,13,19.20
2015,06,28,06,14,19.20
2015,06,28,06,15,19.20
2015,06,28,06,16,19.10
2015,06,28,06,17,19.10
2015,06,28,06,18,19.10
2015,06,28,06,19,19.10
2015,06,28,06,20,19.10
2015,06,28,06,21,19.10
2015,06,28,06,22,19.10
2015,06,28,06,23,19.00
2015,06,28,06,24,19.00
2015,06,28,06,25,19.00
2015,06,28,06,26,19.00
2015,06,28,06,27,19.00
2015,06,28,06,28,18.90
2015,06,28,06,29,18.90
2015,06,28,06,30,18.90
2015,06,28,06,31,18.90
2015,06,28,06,32,18.90
2015,06,28,06,33,18.90
2015,06,28,06,34,18.90
2015,06,28,06,35,18.90
2015,06,28,06,36,18.90
2015,06,28,06,37,19.00
2015,06,28,06,38,19.00
2015,06,28,06,39,19.10
2015,06,28,06,40,19.10
2015,06,28,06,41,19.20
2015,06,28,06,42,19.20
2015,06,28,06,43,19.20
2015,06,28,06,44,19.30
2015,06,28,06,45,19.30
2015,06,28,06,46,19.40
2015,06,28,06,47,19.40
2015,06,28,06,48,19.50
2015,06,28,06,49,19.60
2015,06,28,06,50,19.60
2015,06,28,06,51,19.70
2015,06,28,06,52,19.70
2015,06,28,06,53,19.80
2015,06,28,06,54,19.90
2015,06,28,06,55,19.90
2015,06,28,06,56,20.00
2015,06,28,06,57,20.00
2015,06,28,06,58,20.00
2015,06,28,06,59,20.10
2015,06,28,07,00,20.20
2015,06,28,07,01,20.30
2015,06,28,07,02,20.30
2015,06,28,07,03,20.40
2015,06,28,07,04,20.40
2015,06,28,07,05,20.40
2015,06,28,07,06,20.40
2015,06,28,07,07,20.50
2015,06,28,07,08,20.50
2015,06,28,07,09,20.60
2015,06,28,07,10,20.60
2015,06,28,07,11,20.60
2015,06,28,07,12,20.60
2015,06,28,07,13,20.70
2015,06,28,07,14,20.70
2015,06,28,07,15,20.80
2015,06,28,07,16,20.90
2015,06,28,07,17,20.90
2015,06,28,07,18,21.00
2015,06,28,07,19,21.10
2015,06,28,07,20,21.10
2015,06,28,07,21,21.10
2015,06,28,07,22,21.20
2015,06,28,07,23,21.30
2015,06,28,07,24,21.30
2015,06,28,07,25,21.40
2015,06,28,07,26,21.40
2015,06,28,07,27,21.50
2015,06,28,07,28,21.60
2015,06,28,07,29,21.70
2015,06,28,07,30,21.70
2015,06,28,07,31,21.80
2015,06,28,07,32,21.90
2015,06,28,07,33,22.00
2015,06,28,07,34,22.00
2015,06,28,07,35,22.10
2015,06,28,07,36,22.10
2015,06,28,07,37,22.20
2015,06,28,07,38,22.30
2015,06,28,07,39,22.30
2015,06,28,07,40,22.40
2015,06,28,07,41,22.50
2015,06,28,07,42,22.60
2015,06,28,07,43,22.60
2015,06,28,07,44,22.70
2015,06,28,07,45,22.80
2015,06,28,07,46,22.80
2015,06,28,07,47,22.90
2015,06,28,07,48,23.00
2015,06,28,07,49,23.10
2015,06,28,07,50,23.20
2015,06,28,07,51,23.20
2015,06,28,07,52,23.30
2015,06,28,07,53,23.30
2015,06,28,07,54,23.30
2015,06,28,07,55,23.30
2015,06,28,07,56,23.30
2015,06,28,07,57,23.40
2015,06,28,07,58,23.40
2015,06,28,07,59,23.40
2015,06,28,08,00,23.50
2015,06,28,08,01,23.50
2015,06,28,08,02,23.50
2015,06,28,08,03,23.50
2015,06,28,08,04,23.50
2015,06,28,08,05,23.50
2015,06,28,08,06,23.50
2015,06,28,08,07,23.60
2015,06,28,08,08,23.60
2015,06,28,08,09,23.60
2015,06,28,08,10,23.70
2015,06,28,08,11,23.80
2015,06,28,08,12,23.80
2015,06,28,08,13,23.90
2015,06,28,08,14,23.90
2015,06,28,08,15,24.00
2015,06,28,08,16,24.00
2015,06,28,08,17,24.10
2015,06,28,08,18,24.10
2015,06,28,08,19,24.10
2015,06,28,08,20,24.20
2015,06,28,08,21,24.20
2015,06,28,08,22,24.20
2015,06,28,08,23,24.20
2015,06,28,08,24,24.10
2015,06,28,08,25,24.10
2015,06,28,08,26,24.10
2015,06,28,08,27,24.00
2015,06,28,08,28,24.00
2015,06,28,08,29,23.90
2015,06,28,08,30,23.90
2015,06,28,08,31,23.90
2015,06,28,08,32,24.00
2015,06,28,08,33,24.00
2015,06,28,08,34,24.10
2015,06,28,08,35,24.10
2015,06,28,08,36,24.20
2015,06,28,08,37,24.20
2015,06,28,08,38,24.30
2015,06,28,08,39,24.30
2015,06,28,08,40,24.40
2015,06,28,08,41,24.40
2015,06,28,08,42,24.40
2015,06,28,08,43,24.50
2015,06,28,08,44,24.60
2015,06,28,08,45,24.60
2015,06,28,08,46,24.70
2015,06,28,08,47,24.80
2015,06,28,08,48,24.80
2015,06,28,08,49,24.90
2015,06,28,08,50,25.00
2015,06,28,08,51,25.00
2015,06,28,08,52,25.00
2015,06,28,08,53,25.00
2015,06,28,08,54,25.00
2015,06,28,08,55,25.00
2015,06,28,08,56,25.00
2015,06,28,08,57,25.00
2015,06,28,08,58,25.10
2015,06,28,08,59,25.10
2015,06,28,09,00,25.10
2015,06,28,09,01,25.20
2015,06,28,09,02,25.30
2015,06,28,09,03,25.30
2015,06,28,09,04,25.30
2015,06,28,09,05,25.30
2015,06,28,09,06,25.30
2015,06,28,09,07,25.30
2015,06,28,09,08,25.40
2015,06,28,09,09,25.40
2015,06,28,09,10,25.50
2015,06,28,09,11,25.50
2015,06,28,09,12,25.60
2015,06,28,09,13,25.70
2015,06,28,09,14,25.70
2015,06,28,09,15,25.70
2015,06,28,09,16,25.80
2015,06,28,09,17,25.80
2015,06,28,09,18,25.90
2015,06,28,09,19,25.90
2015,06,28,09,20,26.00
2015,06,28,09,21,26.10
2015,06,28,09,22,26.20
2015,06,28,09,23,26.30
2015,06,28,09,24,26.30
2015,06,28,09,25,26.40
2015,06,28,09,26,26.50
2015,06,28,09,27,26.60
2015,06,28,09,28,26.70
2015,06,28,09,29,26.70
2015,06,28,09,30,26.80
2015,06,28,09,31,26.80
2015,06,28,09,32,26.90
2015,06,28,09,33,26.90
2015,06,28,09,34,26.90
2015,06,28,09,35,26.90
2015,06,28,09,36,27.00
2015,06,28,09,37,27.10
2015,06,28,09,38,27.10
2015,06,28,09,39,27.20
2015,06,28,09,40,27.10
2015,06,28,09,41,27.10
2015,06,28,09,42,27.10
2015,06,28,09,43,27.10
2015,06,28,09,44,27.10
2015,06,28,09,45,27.10
2015,06,28,09,46,27.10
2015,06,28,09,47,27.10
2015,06,28,09,48,27.10
2015,06,28,09,49,27.20
2015,06,28,09,50,27.20
2015,06,28,09,51,27.30
2015,06,28,09,52,27.30
2015,06,28,09,53,27.40
2015,06,28,09,54,27.40
2015,06,28,09,55,27.50
2015,06,28,09,56,27.60
2015,06,28,09,57,27.60
2015,06,28,09,58,27.60
2015,06,28,09,59,27.60
2015,06,28,10,00,27.70
2015,06,28,10,01,27.80
2015,06,28,10,02,27.80
2015,06,28,10,03,27.80
2015,06,28,10,04,27.80
2015,06,28,10,05,27.90
2015,06,28,10,06,27.80
2015,06,28,10,07,27.80
2015,06,28,10,08,27.80
2015,06,28,10,09,27.80
2015,06,28,10,10,27.90
2015,06,28,10,11,28.00
2015,06,28,10,12,28.10
2015,06,28,10,13,28.10
2015,06,28,10,14,28.10
2015,06,28,10,15,28.20
2015,06,28,10,16,28.30
2015,06,28,10,17,28.30
2015,06,28,10,18,28.40
2015,06,28,10,19,28.50
2015,06,28,10,20,28.50
2015,06,28,10,21,28.60
2015,06,28,10,22,28.70
2015,06,28,10,23,28.70
2015,06,28,10,24,28.80
2015,06,28,10,25,28.90
2015,06,28,10,26,29.00
2015,06,28,10,27,29.00
2015,06,28,10,28,29.00
2015,06,28,10,29,29.00
2015,06,28,10,30,29.00
2015,06,28,10,31,29.10
2015,06,28,10,32,29.10
2015,06,28,10,33,29.20
2015,06,28,10,34,29.20
2015,06,28,10,35,29.30
2015,06,28,10,36,29.30
2015,06,28,10,37,29.40
2015,06,28,10,38,29.40
2015,06,28,10,39,29.50
2015,06,28,10,40,29.50
2015,06,28,10,41,29.50
2015,06,28,10,42,29.50
2015,06,28,10,43,29.50
2015,06,28,10,44,29.60
2015,06,28,10,45,29.70
2015,06,28,10,46,29.70
2015,06,28,10,47,29.80
2015,06,28,10,48,29.80
2015,06,28,10,49,29.90
2015,06,28,10,50,30.00
2015,06,28,10,51,30.10
2015,06,28,10,52,30.20
2015,06,28,10,53,30.30
2015,06,28,10,54,30.40
2015,06,28,10,55,30.40
2015,06,28,10,56,30.40
2015,06,28,10,57,30.50
2015,06,28,10,58,30.60
2015,06,28,10,59,30.70
2015,06,28,11,00,30.70
2015,06,28,11,01,30.80
2015,06,28,11,02,30.80
2015,06,28,11,03,30.90
2015,06,28,11,04,30.90
2015,06,28,11,05,31.00
2015,06,28,11,06,31.10
2015,06,28,11,07,31.30
2015,06,28,11,08,31.40
2015,06,28,11,09,31.60
2015,06,28,11,10,31.70
2015,06,28,11,11,31.80
2015,06,28,11,12,31.80
2015,06,28,11,13,31.70
2015,06,28,11,14,31.70
2015,06,28,11,15,31.80
2015,06,28,11,16,31.80
2015,06,28,11,17,31.90
2015,06,28,11,18,32.00
2015,06,28,11,19,32.10
2015,06,28,11,20,32.20
2015,06,28,11,21,32.30
2015,06,28,11,22,32.30
2015,06,28,11,23,32.30
2015,06,28,11,24,32.30
2015,06,28,11,25,32.30
2015,06,28,11,26,32.30
2015,06,28,11,27,32.30
2015,06,28,11,28,32.30
2015,06,28,11,29,32.30
2015,06,28,11,30,32.30
2015,06,28,11,31,32.40
2015,06,28,11,32,32.40
2015,06,28,11,33,32.40
2015,06,28,11,34,32.40
2015,06,28,11,35,32.40
2015,06,28,11,36,32.40
2015,06,28,11,37,32.50
2015,06,28,11,38,32.60
2015,06,28,11,39,32.60
2015,06,28,11,40,32.70
2015,06,28,11,41,32.70
2015,06,28,11,42,32.70
2015,06,28,11,43,32.80
2015,06,28,11,44,33.00
2015,06,28,11,45,33.10
2015,06,28,11,46,33.10
2015,06,28,11,47,33.10
2015,06,28,11,48,33.00
2015,06,28,11,49,32.90
2015,06,28,11,50,32.80
2015,06,28,11,51,32.80
2015,06,28,11,52,32.80
2015,06,28,11,53,32.70
2015,06,28,11,54,32.70
2015,06,28,11,55,32.70
2015,06,28,11,56,32.80
2015,06,28,11,57,32.90
2015,06,28,11,58,33.00
2015,06,28,11,59,33.10
2015,06,28,12,00,33.10
2015,06,28,12,01,33.00
2015,06,28,12,02,32.90
2015,06,28,12,03,32.90
2015,06,28,12,04,32.90
2015,06,28,12,05,32.80
2015,06,28,12,06,32.80
2015,06,28,12,07,32.80
2015,06,28,12,08,32.90
2015,06,28,12,09,33.00
2015,06,28,12,10,33.00
2015,06,28,12,11,33.10
2015,06,28,12,12,33.20
2015,06,28,12,13,33.20
2015,06,28,12,14,33.20
2015,06,28,12,15,33.20
2015,06,28,12,16,33.20
2015,06,28,12,17,33.20
2015,06,28,12,18,33.20
2015,06,28,12,19,33.20
2015,06,28,12,20,33.30
2015,06,28,12,21,33.30
2015,06,28,12,22,33.40
2015,06,28,12,23,33.50
2015,06,28,12,24,33.60
2015,06,28,12,25,33.60
2015,06,28,12,26,33.60
2015,06,28,12,27,33.60
2015,06,28,12,28,33.60
2015,06,28,12,29,33.70
2015,06,28,12,30,33.80
2015,06,28,12,31,33.80
2015,06,28,12,32,33.80
2015,06,28,12,33,33.80
2015,06,28,12,34,33.80
2015,06,28,12,35,33.80
2015,06,28,12,36,33.80
2015,06,28,12,37,33.80
2015,06,28,12,38,33.70
2015,06,28,12,39,33.70
2015,06,28,12,40,33.70
2015,06,28,12,41,33.70
2015,06,28,12,42,33.70
2015,06,28,12,43,33.70
2015,06,28,12,44,33.60
2015,06,28,12,45,33.60
2015,06,28,12,46,33.50
2015,06,28,12,47,33.50
2015,06,28,12,48,33.40
2015,06,28,12,49,33.40
2015,06,28,12,50,33.40
2015,06,28,12,51,33.40
2015,06,28,12,52,33.30
2015,06,28,12,53,33.30
2015,06,28,12,54,33.30
2015,06,28,12,55,33.30
2015,06,28,12,56,33.30
2015,06,28,12,57,33.30
2015,06,28,12,58,33.20
2015,06,28,12,59,33.20
2015,06,28,13,00,33.10
2015,06,28,13,01,33.10
2015,06,28,13,02,33.10
2015,06,28,13,03,33.10
2015,06,28,13,04,33.10
2015,06,28,13,05,33.10
2015,06,28,13,06,33.00
2015,06,28,13,07,33.10
2015,06,28,13,08,33.10
2015,06,28,13,09,33.10
2015,06,28,13,10,33.10
2015,06,28,13,11,33.00
2015,06,28,13,12,33.00
2015,06,28,13,13,32.90
2015,06,28,13,14,32.80
2015,06,28,13,15,32.70
2015,06,28,13,16,32.70
2015,06,28,13,17,32.70
2015,06,28,13,18,32.70
2015,06,28,13,19,32.60
2015,06,28,13,20,32.50
2015,06,28,13,21,32.50
2015,06,28,13,22,32.50
2015,06,28,13,23,32.50
2015,06,28,13,24,32.50
2015,06,28,13,25,32.60
2015,06,28,13,26,32.60
2015,06,28,13,27,32.60
2015,06,28,13,28,32.70
2015,06,28,13,29,32.60
2015,06,28,13,30,32.60
2015,06,28,13,31,32.50
2015,06,28,13,32,32.50
2015,06,28,13,33,32.50
2015,06,28,13,34,32.60
2015,06,28,13,35,32.60
2015,06,28,13,36,32.50
2015,06,28,13,37,32.40
2015,06,28,13,38,32.30
2015,06,28,13,39,32.30
2015,06,28,13,40,32.10
2015,06,28,13,41,32.00
2015,06,28,13,42,31.80
2015,06,28,13,43,31.70
2015,06,28,13,44,31.50
2015,06,28,13,45,31.40
2015,06,28,13,46,31.30
2015,06,28,13,47,31.20
2015,06,28,13,48,31.10
2015,06,28,13,49,31.10
2015,06,28,13,50,31.00
2015,06,28,13,51,31.00
2015,06,28,13,52,30.90
2015,06,28,13,53,31.00
2015,06,28,13,54,31.10
2015,06,28,13,55,31.10
2015,06,28,13,56,31.10
2015,06,28,13,57,31.00
2015,06,28,13,58,30.80
2015,06,28,13,59,30.70
2015,06,28,14,00,30.50
2015,06,28,14,01,30.50
2015,06,28,14,02,30.50
2015,06,28,14,03,30.50
2015,06,28,14,04,30.40
2015,06,28,14,05,30.40
2015,06,28,14,06,30.40
2015,06,28,14,07,30.40
2015,06,28,14,08,30.40
2015,06,28,14,09,30.30
2015,06,28,14,10,30.20
2015,06,28,14,11,30.20
2015,06,28,14,12,30.10
2015,06,28,14,13,30.10
2015,06,28,14,14,30.00
2015,06,28,14,15,30.00
2015,06,28,14,16,30.00
2015,06,28,14,17,30.10
2015,06,28,14,18,30.10
2015,06,28,14,19,30.10
2015,06,28,14,20,30.10
2015,06,28,14,21,30.10
2015,06,28,14,22,30.10
2015,06,28,14,23,30.10
2015,06,28,14,24,30.00
2015,06,28,14,25,29.90
2015,06,28,14,26,29.90
2015,06,28,14,27,29.80
2015,06,28,14,28,29.70
2015,06,28,14,29,29.70
2015,06,28,14,30,29.70
2015,06,28,14,31,29.70
2015,06,28,14,32,29.70
2015,06,28,14,33,29.70
2015,06,28,14,34,29.90
2015,06,28,14,35,29.90
2015,06,28,14,36,30.00
2015,06,28,14,37,29.90
2015,06,28,14,38,30.00
2015,06,28,14,39,30.00
2015,06,28,14,40,29.90
2015,06,28,14,41,29.90
2015,06,28,14,42,29.90
2015,06,28,14,43,29.80
2015,06,28,14,44,29.90
2015,06,28,14,45,29.90
2015,06,28,14,46,30.00
2015,06,28,14,47,30.00
2015,06,28,14,48,30.00
2015,06,28,14,49,30.00
2015,06,28,14,50,30.00
2015,06,28,14,51,29.90
2015,06,28,14,52,29.90
2015,06,28,14,53,29.90
2015,06,28,14,54,29.90
2015,06,28,14,55,29.90
2015,06,28,14,56,29.80
2015,06,28,14,57,29.80
2015,06,28,14,58,29.70
2015,06,28,14,59,29.60
2015,06,28,15,00,29.60
2015,06,28,15,01,29.60
2015,06,28,15,02,29.60
2015,06,28,15,03,29.60
2015,06,28,15,04,29.50
2015,06,28,15,05,29.60
2015,06,28,15,06,29.60
2015,06,28,15,07,29.70
2015,06,28,15,08,29.70
2015,06,28,15,09,29.70
2015,06,28,15,10,29.70
2015,06,28,15,11,29.80
2015,06,28,15,12,29.80
2015,06,28,15,13,29.90
2015,06,28,15,14,29.90
2015,06,28,15,15,30.00
2015,06,28,15,16,30.10
2015,06,28,15,17,30.10
2015,06,28,15,18,30.10
2015,06,28,15,19,30.00
2015,06,28,15,20,30.00
2015,06,28,15,21,29.90
2015,06,28,15,22,30.00
2015,06,28,15,23,30.10
2015,06,28,15,24,30.10
2015,06,28,15,25,30.20
2015,06,28,15,26,30.20
2015,06,28,15,27,30.20
2015,06,28,15,28,30.10
2015,06,28,15,29,30.10
2015,06,28,15,30,30.10
2015,06,28,15,31,30.00
2015,06,28,15,32,30.00
2015,06,28,15,33,30.00
2015,06,28,15,34,30.00
2015,06,28,15,35,30.00
2015,06,28,15,36,30.00
2015,06,28,15,37,30.00
2015,06,28,15,38,30.00
2015,06,28,15,39,30.00
2015,06,28,15,40,30.00
2015,06,28,15,41,30.00
2015,06,28,15,42,30.00
2015,06,28,15,43,30.00
2015,06,28,15,44,30.00
2015,06,28,15,45,30.00
2015,06,28,15,46,29.90
2015,06,28,15,47,29.90
2015,06,28,15,48,29.80
2015,06,28,15,49,29.80
2015,06,28,15,50,29.80
2015,06,28,15,51,29.80
2015,06,28,15,52,29.80
2015,06,28,15,53,29.90
2015,06,28,15,54,29.90
2015,06,28,15,55,29.90
2015,06,28,15,56,30.00
2015,06,28,15,57,30.00
2015,06,28,15,58,30.10
2015,06,28,15,59,30.20
2015,06,28,16,00,30.20
2015,06,28,16,01,30.20
2015,06,28,16,02,30.20
2015,06,28,16,03,30.20
2015,06,28,16,04,30.20
2015,06,28,16,05,30.30
2015,06,28,16,06,30.30
2015,06,28,16,07,30.20
2015,06,28,16,08,30.20
2015,06,28,16,09,30.30
2015,06,28,16,10,30.30
2015,06,28,16,11,30.30
2015,06,28,16,12,30.30
2015,06,28,16,13,30.40
2015,06,28,16,14,30.40
2015,06,28,16,15,30.40
2015,06,28,16,16,30.40
2015,06,28,16,17,30.40
2015,06,28,16,18,30.40
2015,06,28,16,19,30.40
2015,06,28,16,20,30.40
2015,06,28,16,21,30.40
2015,06,28,16,22,30.40
2015,06,28,16,23,30.40
2015,06,28,16,24,30.40
2015,06,28,16,25,30.50
2015,06,28,16,26,30.50
2015,06,28,16,27,30.60
2015,06,28,16,28,30.60
2015,06,28,16,29,30.60
2015,06,28,16,30,30.60
2015,06,28,16,31,30.70
2015,06,28,16,32,30.70
2015,06,28,16,33,30.80
2015,06,28,16,34,30.80
2015,06,28,16,35,30.90
2015,06,28,16,36,30.90
2015,06,28,16,37,31.00
2015,06,28,16,38,31.00
2015,06,28,16,39,31.10
2015,06,28,16,40,31.10
2015,06,28,16,41,31.10
2015,06,28,16,42,31.10
2015,06,28,16,43,31.10
2015,06,28,16,44,31.10
2015,06,28,16,45,31.10
2015,06,28,16,46,31.20
2015,06,28,16,47,31.20
2015,06,28,16,48,31.20
2015,06,28,16,49,31.20
2015,06,28,16,50,31.20
2015,06,28,16,51,31.30
2015,06,28,16,52,31.30
2015,06,28,16,53,31.30
2015,06,28,16,54,31.30
2015,06,28,16,55,31.30
2015,06,28,16,56,31.40
2015,06,28,16,57,31.40
2015,06,28,16,58,31.40
2015,06,28,16,59,31.40
2015,06,28,17,00,31.40
2015,06,28,17,01,31.40
2015,06,28,17,02,31.40
2015,06,28,17,03,31.40
2015,06,28,17,04,31.50
2015,06,28,17,05,31.50
2015,06,28,17,06,31.60
2015,06,28,17,07,31.60
2015,06,28,17,08,31.60
2015,06,28,17,09,31.50
2015,06,28,17,10,31.50
2015,06,28,17,11,31.40
2015,06,28,17,12,31.40
2015,06,28,17,13,31.40
2015,06,28,17,14,31.30
2015,06,28,17,15,31.30
2015,06,28,17,16,31.30
2015,06,28,17,17,31.40
2015,06,28,17,18,31.40
2015,06,28,17,19,31.40
2015,06,28,17,20,31.40
2015,06,28,17,21,31.40
2015,06,28,17,22,31.40